{"data":{"norad_id":68920,"intl_designator":"2026-098B","name":"KUIPER-00380","alt_names":[],"object_type":"PAYLOAD","status":"ACTIVE","operator":null,"country":"US","launch_date":"2026-04-30","launch_site_code":"FRGUI","launch_vehicle":null,"mission":null,"orbit_class":"UNKNOWN","rcs_meters":null,"size_class":null,"mass_kg":null,"dimensions":null,"purposes":[],"wikipedia_slug":null,"has_3d_model":false,"image_url":null,"decayed_at":null,"tle_current":{"epoch":"2026-09-20T04:37:56.522784Z","epoch_age_seconds":42093,"freshness":"FRESH","line1":"1 68920U 26098B   26263.19301531  .00000852  00000+0  14076-3 0  9997","line2":"2 68920  51.9006 350.5468 0000283  87.2839 272.8155 14.79933957 21650","mean_motion":14.79933957,"eccentricity":2.83e-5,"inclination_deg":51.9006,"raan_deg":350.5468,"arg_perigee_deg":87.2839,"mean_anomaly_deg":272.8155,"bstar":0.00014076,"rev_number":2165,"period_min":97.30163925146,"perigee_km":629.33429111486,"apogee_km":629.73092521468,"semimajor_km":7007.6696081648,"source":"CELESTRAK","updated_at":"2026-09-20T09:00:24.552433Z"}}}